CW7595 Weather Reports


Display with metric or nautical units.
time (UTC)temp
F
wind
direction
speed
MPH
gust
MPH
rain 1hr
in
rain 24hr
in
rain mn
in
humidity
%
barometer
mb
20260902041553 55 114 0.0 0.0 0.00 0.00 0.00 78 1019.9
20260902040050 56 128 0.0 0.0 0.00 0.00 0.00 77 1019.8
20260902034550 56 123 0.0 0.0 0.00 0.00 0.00 77 1019.8
20260902033050 56 113 0.0 3.0 0.00 0.00 0.00 76 1019.7
20260902031550 57 70 0.0 1.0 0.00 0.00 0.00 74 1019.6
20260902030046 57 128 0.0 0.0 0.00 0.00 0.00 73 1019.5
20260902024554 58 128 0.0 0.0 0.00 0.00 0.00 70 1019.4
20260902023043 59 75 0.0 3.0 0.00 0.00 0.00 68 1019.3
20260902021544 60 76 0.0 4.0 0.00 0.00 0.00 67 1019.2
20260902020040 60 113 0.0 2.0 0.00 0.00 0.00 65 1019.1
20260902014540 60 101 0.0 1.0 0.00 0.00 0.00 64 1019.0
20260902013042 60 79 0.0 0.0 0.00 0.00 0.00 62 1019.0
20260902011540 60 80 0.0 0.0 0.00 0.00 0.00 62 1018.8
20260902010036 61 80 0.0 0.0 0.00 0.00 0.00 61 1018.8
20260902004536 61 80 0.0 0.0 0.00 0.00 0.00 61 1018.8
20260902003035 63 80 0.0 0.0 0.00 0.00 0.00 57 1018.8
20260902001533 64 77 1.0 3.0 0.00 0.00 0.00 51 1018.7
20260902000034 64 17 0.0 0.0 0.00 0.00 0.00 49 1018.4
20260901234531 64 17 0.0 0.0 0.00 0.00 0.00 50 1018.3
20260901233031 64 17 0.0 0.0 0.00 0.00 0.00 49 1018.1
20260901231530 64 17 0.0 0.0 0.00 0.00 0.00 50 1018.0
20260901230030 65 17 0.0 0.0 0.00 0.00 0.00 49 1017.9
20260901224535 66 17 0.0 0.0 0.00 0.00 0.00 47 1017.8
20260901223029 68 17 0.0 0.0 0.00 0.00 0.00 46 1017.6
20260901221527 70 17 0.0 0.0 0.00 0.00 0.00 43 1017.6
20260901220033 70 17 0.0 0.0 0.00 0.00 0.00 39 1017.5
20260901214526 70 17 0.0 0.0 0.00 0.00 0.00 38 1017.4
20260901213040 71 17 0.0 0.0 0.00 0.00 0.00 37 1017.4
20260901211526 71 355 0.0 0.0 0.00 0.00 0.00 35 1017.3
20260901210027 72 47 0.0 0.0 0.00 0.00 0.00 37 1017.3
20260901204532 72 46 0.0 0.0 0.00 0.00 0.00 36 1017.4
20260901203033 73 49 0.0 0.0 0.00 0.00 0.00 40 1017.4
20260901201522 74 49 0.0 0.0 0.00 0.00 0.00 34 1017.4
20260901200021 76 48 0.0 0.0 0.00 0.00 0.00 37 1017.4
20260901194520 77 85 0.0 5.0 0.00 0.00 0.00 36 1017.3
20260901193026 76 80 0.0 0.0 0.00 0.00 0.00 40 1017.3
20260901191515 76 329 0.0 0.0 0.00 0.00 0.00 34 1017.3
20260901190015 75 20 0.0 4.0 0.00 0.00 0.00 35 1017.4
20260901184529 75 213 0.0 5.0 0.00 0.00 0.00 34 1017.4
20260901183014 75 286 0.0 4.0 0.00 0.00 0.00 34 1017.3
20260901181509 74 84 0.0 6.0 0.00 0.00 0.00 38 1017.3
20260901180009 74 57 0.0 6.0 0.00 0.00 0.00 38 1017.4
20260901174526 74 101 0.0 5.0 0.00 0.00 0.00 36 1017.5
20260901173006 74 53 0.0 3.0 0.00 0.00 0.00 42 1017.5
20260901171505 73 355 0.0 3.0 0.00 0.00 0.00 48 1017.5
20260901170005 73 252 0.0 7.0 0.00 0.00 0.00 48 1017.3
20260901164502 73 335 0.0 0.0 0.00 0.00 0.00 50 1017.3
20260901163059 72 205 0.0 7.0 0.00 0.00 0.00 51 1017.5
20260901161612 71 34 0.0 7.0 0.00 0.00 0.00 49 1017.7
20260901160113 70 300 0.0 6.0 0.00 0.00 0.00 50 1017.7
20260901154553 69 31 1.0 5.0 0.00 0.00 0.00 50 1017.8
20260901153057 67 302 1.0 5.0 0.00 0.00 0.00 55 1017.9
20260901151544 66 32 0.0 1.0 0.00 0.00 0.00 57 1018.0
20260901150041 65 59 0.0 3.0 0.00 0.00 0.00 61 1018.1
20260901144538 64 175 0.0 3.0 0.00 0.00 0.00 63 1018.2
20260901143039 63 360 0.0 0.0 0.00 0.00 0.00 66 1018.3
20260901141532 62 349 0.0 0.0 0.00 0.00 0.00 68 1018.3
20260901140037 61 323 0.0 0.0 0.00 0.00 0.00 69 1018.3
20260901134526 60 285 0.0 0.0 0.00 0.00 0.00 74 1018.2
20260901133019 58 281 0.0 0.0 0.00 0.00 0.00 78 1018.2
20260901131516 56 275 0.0 0.0 0.00 0.00 0.00 82 1018.1
20260901130011 54 27 0.0 0.0 0.00 0.00 0.00 84 1018.1
20260901124520 52 30 0.0 0.0 0.00 0.00 0.00 85 1018.1
20260901123017 51 96 0.0 0.0 0.00 0.00 0.00 85 1017.9
20260901121505 50 96 0.0 0.0 0.00 0.00 0.00 85 1017.8
20260901120006 48 96 0.0 0.0 0.00 0.00 0.00 85 1017.8
20260901114504 48 96 0.0 0.0 0.00 0.00 0.00 85 1017.8
20260901113003 48 96 0.0 0.0 0.00 0.00 0.00 85 1017.6
20260901111502 47 96 0.0 0.0 0.00 0.00 0.00 84 1017.6
20260901110002 47 96 0.0 0.0 0.00 0.00 0.00 84 1017.5
20260901104600 47 96 0.0 0.0 0.00 0.00 0.00 84 1017.5
20260901103058 46 96 0.0 0.0 0.00 0.00 0.00 84 1017.3
20260901101556 47 96 0.0 0.0 0.00 0.00 0.00 84 1017.1
20260901100056 47 96 0.0 0.0 0.00 0.00 0.00 84 1017.0
20260901094555 47 96 0.0 0.0 0.00 0.00 0.00 84 1017.0
20260901093053 47 96 0.0 0.0 0.00 0.00 0.00 84 1017.0
20260901091552 47 96 0.0 0.0 0.00 0.00 0.00 83 1016.9
20260901090050 48 96 0.0 0.0 0.00 0.00 0.00 83 1016.9
20260901084548 48 96 0.0 0.0 0.00 0.00 0.00 83 1016.7
20260901083047 48 96 0.0 0.0 0.00 0.00 0.00 83 1016.6
20260901081545 49 96 0.0 0.0 0.00 0.00 0.00 83 1016.6
20260901080045 49 96 0.0 0.0 0.00 0.00 0.00 83 1016.7
20260901074545 49 96 0.0 0.0 0.00 0.00 0.00 82 1016.7
20260901073041 49 96 0.0 0.0 0.00 0.00 0.00 82 1016.7
20260901071541 50 96 0.0 0.0 0.00 0.00 0.00 82 1016.5
20260901070039 50 96 0.0 0.0 0.00 0.00 0.00 82 1016.5
20260901064538 50 96 0.0 0.0 0.00 0.00 0.00 81 1016.4
20260901063048 50 96 0.0 0.0 0.00 0.00 0.00 81 1016.4
20260901061534 50 96 0.0 0.0 0.00 0.00 0.00 81 1016.4
20260901060033 51 96 0.0 0.0 0.00 0.00 0.00 81 1016.3
20260901054532 51 96 0.0 0.0 0.00 0.00 0.00 81 1016.3
20260901053029 51 96 0.0 0.0 0.00 0.00 0.00 81 1016.2
20260901051537 51 96 0.0 0.0 0.00 0.00 0.00 81 1016.1
20260901050026 52 96 0.0 0.0 0.00 0.00 0.00 80 1016.1
20260901044524 52 96 0.0 0.0 0.00 0.00 0.00 80 1016.1
20260901043031 52 96 0.0 0.0 0.00 0.00 0.00 79 1016.2